Crisp Cnty-Cordele AP, Cordel, GA

12:47 PM EST on November 15, 2019 (GMT -0500)
Crisp County-Cordele

Weather History for KCKF - September, 2019

Change the Weather History Date:

Tuesday, September 17, 2019

  Actual Average (KFZG) Record (KFZG)
Temperature  
Mean Temperature 82 °F -  
Max Temperature 98 °F 87 °F 100 °F (2019)
Min Temperature 66 °F 67 °F 65 °F (2019)
Cooling Degree Days 17    
Growing Degree Days 32 (Base 50)    
Moisture  
Dew Point 63 °F    
Average Humidity 60    
Maximum Humidity 94    
Minimum Humidity 25    
Precipitation  
Precipitation 0.00 in - - ()
Sea Level Pressure  
Sea Level Pressure 29.97 in    
Wind  
Wind Speed 1 mph (West)    
Max Wind Speed 9 mph    
Max Gust Speed -    
Visibility 10 miles    
Events      
Averages and records for this station are not official NWS values.
T = Trace of Precipitation, MM = Missing Value Source: NWS Daily Summary

Daily Weather History Graph

Daily Weather History Graph

Search for Another Location

Airport or City:

Astronomy

Sep. 17, 2019 Rise Set
Actual Time 7:20 AM EDT 7:38 PM EDT
Civil Twilight 6:55 AM EDT 8:03 PM EDT
Nautical Twilight 6:27 AM EDT 8:31 PM EDT
Astronomical Twilight 5:58 AM EDT 9:00 PM EDT
Moon 9:52 PM EDT (9/17) 10:14 AM EDT (9/17)
Length of Visible Light 13h 07m
Length of Day
12h 18m
Waning Gibbous, 89% of the Moon is Illuminated
Sep 17
Waning Gibbous
Sep 21
Last Quarter
Sep 28
New
Oct 5
First Quarter
Oct 13
Full

Hourly Weather History & Observations

Time (EDT) Temp. Heat Index Dew Point Humidity Pressure Visibility Wind Dir Wind Speed Gust Speed Precip Events Conditions
12:15 AM 70.7 °F - 66.4 °F 86% 29.99 in 10.0 mi Calm Calm - N/A   Clear
12:35 AM 70.2 °F - 66.0 °F 87% 29.99 in 10.0 mi Calm Calm - N/A   Clear
12:55 AM 69.8 °F - 65.3 °F 86% 29.99 in 10.0 mi Calm Calm - N/A   Clear
1:15 AM 69.3 °F - 66.2 °F 90% 29.99 in 10.0 mi Calm Calm - N/A   Clear
1:35 AM 69.4 °F - 66.2 °F 89% 29.99 in 10.0 mi Calm Calm - N/A   Clear
1:55 AM 69.1 °F - 65.3 °F 88% 29.98 in 10.0 mi Calm Calm - N/A   Clear
2:15 AM 68.9 °F - 66.0 °F 90% 29.98 in 10.0 mi Calm Calm - N/A   Clear
2:35 AM 68.9 °F - 65.5 °F 89% 29.98 in 10.0 mi Calm Calm - N/A   Clear
2:55 AM 68.9 °F - 64.9 °F 87% 29.98 in 10.0 mi Calm Calm - N/A   Clear
3:15 AM 68.2 °F - 64.8 °F 89% 29.97 in 10.0 mi Calm Calm - N/A   Clear
3:35 AM 68.4 °F - 64.6 °F 88% 29.97 in 10.0 mi Calm Calm - N/A   Clear
3:55 AM 67.3 °F - 64.8 °F 92% 29.97 in 10.0 mi Calm Calm - N/A   Clear
4:15 AM 67.5 °F - 64.6 °F 90% 29.96 in 10.0 mi Calm Calm - N/A   Clear
4:35 AM 67.6 °F - 64.4 °F 89% 29.96 in 10.0 mi Calm Calm - N/A   Clear
4:55 AM 67.8 °F - 64.6 °F 89% 29.96 in 10.0 mi Calm Calm - N/A   Clear
5:15 AM 67.1 °F - 64.6 °F 92% 29.97 in 10.0 mi Calm Calm - N/A   Clear
5:35 AM 67.1 °F - 64.6 °F 92% 29.97 in 10.0 mi Calm Calm - N/A   Clear
5:55 AM 66.7 °F - 64.6 °F 93% 29.98 in 10.0 mi Calm Calm - N/A   Clear
6:15 AM 66.2 °F - 64.6 °F 94% 29.98 in 10.0 mi Calm Calm - N/A   Clear
6:35 AM 66.4 °F - 64.6 °F 94% 29.99 in 10.0 mi Calm Calm - N/A   Clear
6:55 AM 66.4 °F - 64.4 °F 93% 29.99 in 10.0 mi Calm Calm - N/A   Clear
7:15 AM 66.4 °F - 64.0 °F 92% 30.00 in 10.0 mi Calm Calm - N/A   Clear
7:35 AM 66.6 °F - 64.2 °F 92% 30.01 in 10.0 mi Calm Calm - N/A   Clear
7:55 AM 67.1 °F - 64.8 °F 92% 30.01 in 10.0 mi Calm Calm - N/A   Clear
8:15 AM 68.5 °F - 65.3 °F 89% 30.01 in 10.0 mi Calm Calm - N/A   Clear
8:30 AM 70.3 °F - 66.0 °F 86% 30.01 in 10.0 mi Calm Calm - N/A   Clear
8:55 AM 73.4 °F - 65.7 °F 77% 30.01 in 10.0 mi Calm Calm - N/A   Unknown
9:15 AM 76.8 °F - 65.7 °F 68% 30.02 in 10.0 mi Calm Calm - N/A   Clear
9:35 AM 79.2 °F - 65.8 °F 64% 30.02 in 10.0 mi Calm Calm - N/A   Clear
9:55 AM 82.0 °F 84.1 °F 65.8 °F 58% 30.02 in 10.0 mi Calm Calm - N/A   Clear
10:15 AM 85.3 °F 86.8 °F 64.8 °F 50% 30.03 in 10.0 mi Calm Calm - N/A   Clear
10:35 AM 87.3 °F 88.6 °F 64.4 °F 46% 30.03 in 10.0 mi Calm Calm - N/A   Clear
10:55 AM 89.2 °F 90.2 °F 63.5 °F 42% 30.03 in 10.0 mi NNW 3.5 mph - N/A   Clear
11:15 AM 90.7 °F 91.7 °F 63.1 °F 40% 30.02 in 10.0 mi Calm Calm - N/A   Clear
11:35 AM 92.8 °F 92.8 °F 60.8 °F 34% 30.02 in 10.0 mi NNE 3.5 mph - N/A   Clear
11:55 AM 92.5 °F 92.2 °F 60.4 °F 34% 30.01 in 10.0 mi NW 4.6 mph - N/A   Clear
12:15 PM 93.6 °F 92.7 °F 58.8 °F 31% 30.01 in 10.0 mi NNW 3.5 mph - N/A   Clear
12:35 PM 95.5 °F 96.0 °F 61.0 °F 32% 30.00 in 10.0 mi West 6.9 mph - N/A   Clear
12:55 PM 94.5 °F 94.4 °F 60.6 °F 32% 30.00 in 10.0 mi NNW 6.9 mph - N/A   Clear
1:15 PM 94.3 °F 94.1 °F 59.9 °F 32% 29.99 in 10.0 mi Calm Calm - N/A   Clear
1:35 PM 95.9 °F 95.7 °F 59.4 °F 30% 29.99 in 10.0 mi West 8.1 mph - N/A   Clear
1:55 PM 95.7 °F 95.1 °F 58.3 °F 29% 29.98 in 10.0 mi WSW 6.9 mph - N/A   Clear
2:15 PM 97.2 °F 96.4 °F 57.6 °F 27% 29.97 in 10.0 mi SW 5.8 mph - N/A   Clear
2:35 PM 97.3 °F 96.6 °F 57.9 °F 27% 29.97 in 10.0 mi WNW 8.1 mph - N/A   Clear
2:55 PM 96.8 °F 95.5 °F 57.0 °F 26% 29.96 in 10.0 mi SW 3.5 mph - N/A   Clear
3:15 PM 97.7 °F 96.3 °F 56.5 °F 25% 29.95 in 10.0 mi North 5.8 mph - N/A   Clear
3:35 PM 98.6 °F 97.6 °F 57.4 °F 25% 29.94 in 10.0 mi West 9.2 mph - N/A   Clear
3:55 PM 97.7 °F 96.3 °F 55.9 °F 25% 29.93 in 10.0 mi West 9.2 mph - N/A   Clear
4:15 PM 98.8 °F 97.8 °F 57.4 °F 25% 29.93 in 10.0 mi NW 6.9 mph - N/A   Clear
4:35 PM 98.2 °F 97.1 °F 56.7 °F 25% 29.92 in 10.0 mi Calm Calm - N/A   Clear
4:55 PM 98.6 °F 97.6 °F 57.0 °F 25% 29.92 in 10.0 mi West 4.6 mph - N/A   Clear
5:15 PM 98.8 °F 97.8 °F 57.6 °F 25% 29.92 in 10.0 mi WSW 5.8 mph - N/A   Clear
5:35 PM 97.9 °F 97.0 °F 57.0 °F 26% 29.92 in 10.0 mi West 3.5 mph - N/A   Clear
5:55 PM 97.7 °F 96.7 °F 57.0 °F 26% 29.91 in 10.0 mi West 4.6 mph - N/A   Clear
6:15 PM 97.3 °F 96.2 °F 56.7 °F 26% 29.91 in 10.0 mi Calm Calm - N/A   Clear
6:35 PM 96.4 °F 95.7 °F 58.8 °F 28% 29.91 in 10.0 mi South 5.8 mph - N/A   Clear
6:55 PM 95.4 °F 94.6 °F 58.8 °F 29% 29.92 in 10.0 mi SSW 6.9 mph - N/A   Clear
7:15 PM 93.0 °F 93.0 °F 61.2 °F 34% 29.91 in 10.0 mi SSW 5.8 mph - N/A   Clear
7:35 PM 92.1 °F 92.4 °F 61.7 °F 36% 29.91 in 10.0 mi SSW 3.5 mph - N/A   Clear
7:55 PM 87.3 °F 89.5 °F 66.0 °F 49% 29.92 in 10.0 mi Calm Calm - N/A   Clear
8:15 PM 84.4 °F 86.8 °F 66.6 °F 55% 29.92 in 10.0 mi Calm Calm - N/A   Clear
8:35 PM 82.4 °F 84.8 °F 66.7 °F 59% 29.92 in 10.0 mi Calm Calm - N/A   Clear
8:55 PM 81.7 °F 84.2 °F 67.3 °F 61% 29.93 in 10.0 mi Calm Calm - N/A   Clear
9:15 PM 80.8 °F 83.3 °F 67.5 °F 64% 29.93 in 10.0 mi Calm Calm - N/A   Clear
9:35 PM 79.5 °F - 68.0 °F 68% 29.93 in 10.0 mi Calm Calm - N/A   Clear
9:55 PM 78.8 °F - 67.1 °F 67% 29.94 in 10.0 mi Calm Calm - N/A   Clear
10:15 PM 79.2 °F - 67.5 °F 67% 29.95 in 10.0 mi Calm Calm - N/A   Scattered Clouds
10:35 PM 79.0 °F - 67.6 °F 68% 29.95 in 10.0 mi Calm Calm - N/A   Scattered Clouds
10:55 PM 78.1 °F - 67.5 °F 70% 29.95 in 10.0 mi Calm Calm - N/A   Clear
11:15 PM 76.3 °F - 67.5 °F 74% 29.95 in 10.0 mi Calm Calm - N/A   Scattered Clouds
11:35 PM 77.0 °F - 67.8 °F 73% 29.95 in 10.0 mi Calm Calm - N/A   Clear
11:55 PM 77.5 °F - 68.2 °F 73% 29.94 in 10.0 mi Calm Calm - N/A   Clear